AIC119 VABB-KJFK

Flight info

Callsign AIC119
Flight time N/A
Altitude 30000
Route RAXET2A SAKUN V2 SUGID N571 PARAR M628 TULBU G652 NAMVA/N0511F320 G652 TOKRA DCT MEDPO DCT BOSOB DCT ITRUX Y511 PMA Z712 WEJ W600 DARAX L677 EMOVA/N0500F340 L677 CVO L617 MENKU Y661 ANTAR DCT MIL DCT KUGGI DCT DINOB DCT BEROL DCT EPIKU DCT GINOX DCT KIFMI/N0482F360 DCT ELVOP DCT MUREN DCT CHELY/N0483F350 M601 BCN N725 SUSOS/N0484F360 DCT STG DCT RETEN/M084F360 DCT 43N020W 43N030W/M084F380 43N040W 44N050W DCT BOBTU DCT LOMPI/N0481F380 DCT WHALE DCT LFV DCT MVY DCT SEY DCT PARCH PARCH4
Aircraft B77W/H-SDE1E2E3FGHIJ2J3J4J5M1RWXY/LB1D1

Departure

Time 2026-04-28 19:37
Airport Chhatrapati Shivaji Maharaj International Airport (VABB)

Arrival

Time N/A
Airport John F. Kennedy International Airport (KJFK)
Time Latitude Longitude Altitude Speed Heading
2026-04-28 18:37 19.09480 72.87731 54 ft 0 kts 312°
2026-04-28 19:29 19.09467 72.87748 46 ft 4 kts 298°
2026-04-28 19:29 19.09459 72.87774 47 ft 4 kts 266°
2026-04-28 19:30 19.09467 72.87799 46 ft 4 kts 224°
2026-04-28 19:30 19.09478 72.87808 54 ft 1 kts 212°
2026-04-28 19:30 19.09479 72.87809 54 ft 0 kts 212°
2026-04-28 19:34 19.09451 72.87790 50 ft 10 kts 212°
2026-04-28 19:34 19.09356 72.87755 50 ft 19 kts 178°
2026-04-28 19:34 19.09231 72.87759 51 ft 16 kts 180°
2026-04-28 19:35 19.09133 72.87786 51 ft 18 kts 150°
2026-04-28 19:35 19.09058 72.87881 48 ft 20 kts 92°
2026-04-28 19:35 19.09061 72.87992 53 ft 9 kts 88°
2026-04-28 19:35 19.09030 72.88045 51 ft 10 kts 162°
2026-04-28 19:36 19.08944 72.88053 47 ft 14 kts 179°
2026-04-28 19:36 19.08894 72.88044 47 ft 5 kts 224°
2026-04-28 19:36 19.08890 72.88023 45 ft 2 kts 268°
2026-04-28 19:36 19.08888 72.87914 52 ft 42 kts 269°
2026-04-28 19:37 19.08880 72.87313 56 ft 120 kts 269°
2026-04-28 19:37 19.08869 72.86614 48 ft 167 kts 269°
2026-04-28 19:37 19.08837 72.84808 825 ft 186 kts 269°
2026-04-28 19:37 19.08827 72.83434 1658 ft 187 kts 271°
2026-04-28 19:38 19.08817 72.82069 2228 ft 189 kts 271°
2026-04-28 19:38 19.08800 72.80671 2554 ft 192 kts 270°
2026-04-28 19:38 19.08778 72.79248 2872 ft 194 kts 270°
2026-04-28 19:38 19.08753 72.77819 3221 ft 196 kts 270°
2026-04-28 19:39 19.08726 72.76311 3324 ft 212 kts 270°
2026-04-28 19:39 19.08711 72.74700 3464 ft 225 kts 275°
2026-04-28 19:39 19.08853 72.73026 3753 ft 232 kts 278°
2026-04-28 19:39 19.09054 72.71289 4044 ft 244 kts 279°
2026-04-28 19:40 19.09267 72.69473 4421 ft 253 kts 279°
2026-04-28 19:40 19.09484 72.67607 4764 ft 264 kts 279°
2026-04-28 19:40 19.09707 72.65646 5183 ft 273 kts 278°
2026-04-28 19:40 19.09932 72.63640 5734 ft 276 kts 278°
2026-04-28 19:41 19.10155 72.61620 6355 ft 277 kts 278°
2026-04-28 19:41 19.10377 72.59587 6922 ft 281 kts 277°
2026-04-28 19:41 19.10601 72.57519 7431 ft 284 kts 277°
2026-04-28 19:41 19.10826 72.55433 7993 ft 287 kts 276°
2026-04-28 19:42 19.11053 72.53325 8569 ft 289 kts 276°
2026-04-28 19:42 19.11281 72.51196 9124 ft 292 kts 275°
2026-04-28 19:42 19.11511 72.49050 9665 ft 296 kts 275°
2026-04-28 19:42 19.11664 72.47614 10004 ft 299 kts 275°
2026-04-28 19:43 19.11985 72.44590 10249 ft 322 kts 275°
2026-04-28 19:43 19.12242 72.42171 10390 ft 340 kts 275°
2026-04-28 19:43 19.12513 72.39618 10540 ft 359 kts 275°
2026-04-28 19:43 19.12797 72.36945 10820 ft 371 kts 275°
2026-04-28 19:44 19.13090 72.34199 11262 ft 379 kts 276°
2026-04-28 19:44 19.13385 72.31413 11819 ft 383 kts 276°
2026-04-28 19:44 19.13683 72.28604 12416 ft 386 kts 276°
2026-04-28 19:44 19.13984 72.25763 13027 ft 389 kts 276°
2026-04-28 19:45 19.14286 72.22908 13588 ft 392 kts 276°
2026-04-28 19:45 19.14588 72.20040 14194 ft 392 kts 276°
2026-04-28 19:45 19.14891 72.17160 14735 ft 394 kts 277°
2026-04-28 19:45 19.15192 72.14300 15186 ft 399 kts 277°
2026-04-28 19:46 19.15503 72.11359 15530 ft 404 kts 278°
2026-04-28 19:46 19.16143 72.08462 15800 ft 409 kts 295°
2026-04-28 19:46 19.17496 72.05821 16122 ft 409 kts 301°
2026-04-28 19:46 19.18910 72.03188 16585 ft 414 kts 300°
2026-04-28 19:47 19.20301 72.00519 17192 ft 413 kts 300°
2026-04-28 19:47 19.21679 71.97832 17583 ft 419 kts 299°
2026-04-28 19:47 19.23067 71.95098 18065 ft 422 kts 299°
2026-04-28 19:47 19.24448 71.92364 18586 ft 421 kts 299°
2026-04-28 19:48 19.25827 71.89623 19103 ft 422 kts 299°
2026-04-28 19:48 19.27213 71.86864 19450 ft 427 kts 298°
2026-04-28 19:48 19.28614 71.84076 19912 ft 428 kts 298°
2026-04-28 19:48 19.29996 71.81326 20372 ft 429 kts 298°
2026-04-28 19:49 19.31408 71.78513 20695 ft 435 kts 298°
2026-04-28 19:49 19.32835 71.75672 21108 ft 437 kts 298°
2026-04-28 19:49 19.34260 71.72832 21681 ft 436 kts 298°
2026-04-28 19:49 19.35689 71.69984 22064 ft 439 kts 298°
2026-04-28 19:50 19.38579 71.64220 22837 ft 445 kts 298°
2026-04-28 19:50 19.40033 71.61318 23241 ft 447 kts 298°
2026-04-28 19:50 19.41475 71.58436 23560 ft 450 kts 298°
2026-04-28 19:51 19.42945 71.55500 23901 ft 451 kts 298°
2026-04-28 19:51 19.44415 71.52560 24227 ft 453 kts 298°
2026-04-28 19:51 19.45893 71.49606 24569 ft 454 kts 298°
2026-04-28 19:51 19.47374 71.46641 24904 ft 455 kts 297°
2026-04-28 19:52 19.48860 71.43667 25233 ft 457 kts 297°
2026-04-28 19:52 19.50349 71.40684 25547 ft 459 kts 297°
2026-04-28 19:52 19.51843 71.37688 25852 ft 460 kts 297°
2026-04-28 19:52 19.53341 71.34684 26166 ft 462 kts 297°
2026-04-28 19:53 19.54847 71.31663 26483 ft 463 kts 297°
2026-04-28 19:53 19.56352 71.28641 26777 ft 465 kts 297°
2026-04-28 19:53 19.57865 71.25602 27079 ft 466 kts 297°
2026-04-28 19:53 19.59383 71.22552 27368 ft 468 kts 297°
2026-04-28 19:54 19.60893 71.19487 27649 ft 468 kts 295°
2026-04-28 19:54 19.62162 71.16303 27895 ft 470 kts 289°
2026-04-28 19:54 19.63203 71.13015 28144 ft 471 kts 287°
2026-04-28 19:54 19.64146 71.09723 28404 ft 472 kts 286°
2026-04-28 19:55 19.65090 71.06383 28671 ft 473 kts 287°
2026-04-28 19:55 19.66059 71.03037 28889 ft 475 kts 287°
2026-04-28 19:55 19.67058 70.99691 29119 ft 476 kts 287°
2026-04-28 19:55 19.68081 70.96345 29331 ft 477 kts 288°
2026-04-28 19:56 19.69122 70.92990 29535 ft 478 kts 288°
2026-04-28 19:56 19.70168 70.89636 29706 ft 480 kts 288°
2026-04-28 19:56 19.71221 70.86261 29749 ft 482 kts 288°
2026-04-28 19:57 19.73323 70.79511 29787 ft 479 kts 288°
2026-04-28 19:57 19.75403 70.72802 29804 ft 477 kts 288°
2026-04-28 19:58 19.77472 70.66117 29801 ft 476 kts 288°
2026-04-28 19:58 19.79523 70.59481 29799 ft 476 kts 288°
2026-04-28 19:59 19.81587 70.52790 29802 ft 476 kts 288°
2026-04-28 19:59 19.83649 70.46100 29796 ft 477 kts 288°
2026-04-28 20:00 19.85618 70.39382 29792 ft 475 kts 281°
2026-04-28 20:00 19.85811 70.32382 29804 ft 477 kts 264°
2026-04-28 20:01 19.84117 70.25604 29811 ft 479 kts 252°
2026-04-28 20:01 19.81909 70.18912 29789 ft 481 kts 252°
2026-04-28 20:02 19.79726 70.12174 29799 ft 483 kts 253°
2026-04-28 20:02 19.77573 70.05406 29794 ft 484 kts 253°
2026-04-28 20:03 19.75427 69.98629 29798 ft 484 kts 253°
2026-04-28 20:03 19.73279 69.91859 29801 ft 483 kts 253°
2026-04-28 20:04 19.71131 69.85103 29793 ft 483 kts 253°
2026-04-28 20:04 19.68983 69.78360 29794 ft 482 kts 253°
2026-04-28 20:05 19.66845 69.71657 29795 ft 482 kts 253°
2026-04-28 20:05 19.64693 69.64919 29802 ft 482 kts 253°
2026-04-28 20:06 19.62538 69.58183 29801 ft 482 kts 253°
2026-04-28 20:06 19.60380 69.51446 29794 ft 482 kts 253°
2026-04-28 20:07 19.58216 69.44697 29792 ft 483 kts 253°
2026-04-28 20:07 19.56346 69.37894 29790 ft 478 kts 266°
2026-04-28 20:07 19.56388 69.34378 29814 ft 477 kts 278°
2026-04-28 20:08 19.57074 69.30937 29804 ft 478 kts 288°
2026-04-28 20:08 19.59968 69.24616 29808 ft 478 kts 297°
2026-04-28 20:09 19.63079 69.18349 29798 ft 482 kts 297°
2026-04-28 20:09 19.66158 69.12015 29805 ft 484 kts 296°
2026-04-28 20:10 19.69198 69.05687 29800 ft 484 kts 296°
2026-04-28 20:10 19.72250 68.99313 29798 ft 483 kts 296°
2026-04-28 20:11 19.75290 68.92956 29798 ft 482 kts 296°
2026-04-28 20:11 19.77811 68.87684 29794 ft 481 kts 296°
2026-04-28 20:12 19.81327 68.80324 29798 ft 479 kts 296°
2026-04-28 20:12 19.83854 68.75028 29805 ft 479 kts 296°
2026-04-28 20:13 19.86845 68.68752 29794 ft 479 kts 296°
2026-04-28 20:13 19.89853 68.62435 29795 ft 479 kts 296°
2026-04-28 20:14 19.92864 68.56104 29799 ft 480 kts 296°
2026-04-28 20:14 19.95873 68.49770 29787 ft 480 kts 296°
2026-04-28 20:15 19.98884 68.43425 29797 ft 480 kts 296°
2026-04-28 20:15 20.01896 68.37071 29791 ft 481 kts 296°
2026-04-28 20:16 20.04907 68.30710 29792 ft 481 kts 296°
2026-04-28 20:16 20.07920 68.24340 29800 ft 481 kts 296°
2026-04-28 20:17 20.10908 68.18014 29784 ft 481 kts 296°
2026-04-28 20:17 20.13912 68.11646 29790 ft 481 kts 296°
2026-04-28 20:18 20.16912 68.05283 29792 ft 481 kts 296°
2026-04-28 20:18 20.19908 67.98917 29792 ft 481 kts 296°
2026-04-28 20:19 20.22904 67.92547 29787 ft 481 kts 296°
2026-04-28 20:19 20.25895 67.86178 29785 ft 481 kts 296°
2026-04-28 20:20 20.28885 67.79805 29788 ft 481 kts 296°
2026-04-28 20:20 20.31851 67.73475 29792 ft 481 kts 296°
2026-04-28 20:21 20.34839 67.67090 29794 ft 481 kts 296°
2026-04-28 20:21 20.37830 67.60692 29784 ft 481 kts 296°
2026-04-28 20:22 20.40815 67.54301 29781 ft 481 kts 296°
2026-04-28 20:22 20.43779 67.47946 29779 ft 481 kts 296°
2026-04-28 20:23 20.46760 67.41546 29785 ft 482 kts 296°
2026-04-28 20:23 20.49746 67.35130 29785 ft 482 kts 296°
2026-04-28 20:24 20.52726 67.28716 29782 ft 482 kts 296°
2026-04-28 20:24 20.55706 67.22297 29780 ft 482 kts 296°
2026-04-28 20:25 20.58666 67.15914 29777 ft 483 kts 296°
2026-04-28 20:25 20.61645 67.09482 29780 ft 483 kts 296°
2026-04-28 20:26 20.64623 67.03043 29778 ft 483 kts 296°
2026-04-28 20:26 20.67597 66.96607 29782 ft 483 kts 296°
2026-04-28 20:27 20.70569 66.90167 29781 ft 483 kts 296°
2026-04-28 20:27 20.73537 66.83726 29777 ft 483 kts 296°
2026-04-28 20:28 20.76508 66.77273 29782 ft 483 kts 296°
2026-04-28 20:28 20.79457 66.70860 29781 ft 483 kts 296°
2026-04-28 20:29 20.82419 66.64410 29777 ft 484 kts 296°
2026-04-28 20:29 20.85382 66.57950 29779 ft 484 kts 296°
2026-04-28 20:30 20.88348 66.51477 29775 ft 484 kts 296°
2026-04-28 20:30 20.91291 66.45044 29775 ft 484 kts 296°
2026-04-28 20:31 20.94252 66.38566 29772 ft 484 kts 296°
2026-04-28 20:31 20.97209 66.32088 29771 ft 484 kts 296°
2026-04-28 20:32 21.00163 66.25609 29766 ft 484 kts 296°
2026-04-28 20:32 21.03111 66.19133 29778 ft 484 kts 296°
2026-04-28 20:33 21.06063 66.12642 29768 ft 484 kts 296°
2026-04-28 20:33 21.09005 66.06165 29763 ft 483 kts 296°
2026-04-28 20:34 21.11924 65.99731 29766 ft 483 kts 296°
2026-04-28 20:34 21.14930 65.93288 29764 ft 483 kts 297°
2026-04-28 20:35 21.17975 65.86873 29761 ft 483 kts 297°
2026-04-28 20:35 21.21009 65.80463 29765 ft 482 kts 296°
2026-04-28 20:36 21.24033 65.74038 29764 ft 482 kts 296°
2026-04-28 20:36 21.27050 65.67613 29768 ft 482 kts 296°
2026-04-28 20:37 21.30065 65.61181 29751 ft 482 kts 296°
2026-04-28 20:37 21.33076 65.54752 29760 ft 482 kts 296°
2026-04-28 20:38 21.36083 65.48324 29755 ft 481 kts 296°
2026-04-28 20:38 21.39065 65.41942 29759 ft 481 kts 296°
2026-04-28 20:39 21.42066 65.35510 29754 ft 481 kts 296°
2026-04-28 20:39 21.45063 65.29082 29753 ft 481 kts 296°
2026-04-28 20:40 21.48060 65.22644 29768 ft 482 kts 296°
2026-04-28 20:40 21.51052 65.16209 29758 ft 481 kts 296°
2026-04-28 20:41 21.54035 65.09785 29753 ft 480 kts 296°
2026-04-28 20:41 21.57009 65.03372 29750 ft 479 kts 296°
2026-04-28 20:42 21.59961 64.97000 29746 ft 479 kts 296°
2026-04-28 20:42 21.62926 64.90591 29751 ft 478 kts 296°
2026-04-28 20:43 21.65886 64.84185 29754 ft 479 kts 296°
2026-04-28 20:43 21.68847 64.77769 29754 ft 479 kts 296°
2026-04-28 20:44 21.71811 64.71338 29759 ft 479 kts 296°
2026-04-28 20:44 21.74751 64.64953 29748 ft 479 kts 296°
2026-04-28 20:45 21.77706 64.58525 29749 ft 479 kts 295°
2026-04-28 20:45 21.80656 64.52101 29751 ft 478 kts 295°
2026-04-28 20:46 21.83603 64.45676 29744 ft 478 kts 295°
2026-04-28 20:46 21.86546 64.39251 29746 ft 478 kts 295°
2026-04-28 20:47 21.89482 64.32833 29741 ft 478 kts 295°
2026-04-28 20:47 21.92396 64.26455 29763 ft 477 kts 295°
2026-04-28 20:48 21.95329 64.20029 29745 ft 477 kts 295°
2026-04-28 20:48 21.98254 64.13610 29743 ft 477 kts 295°
2026-04-28 20:49 22.01179 64.07184 29740 ft 477 kts 295°
2026-04-28 20:49 22.04097 64.00765 29738 ft 477 kts 295°
2026-04-28 20:50 22.07012 63.94344 29744 ft 476 kts 295°
2026-04-28 20:50 22.09909 63.87955 29742 ft 477 kts 295°
2026-04-28 20:51 22.12821 63.81526 29738 ft 477 kts 295°
2026-04-28 20:51 22.15733 63.75088 29747 ft 477 kts 295°
2026-04-28 20:52 22.18643 63.68645 29742 ft 477 kts 294°
2026-04-28 20:52 22.21549 63.62202 29742 ft 477 kts 294°
2026-04-28 20:53 22.25876 63.52595 29739 ft 476 kts 294°
2026-04-28 20:53 22.28774 63.46152 29741 ft 476 kts 294°
2026-04-28 20:54 22.31667 63.39710 29737 ft 476 kts 294°
2026-04-28 20:54 22.34555 63.33269 29739 ft 476 kts 294°
2026-04-28 20:55 22.37438 63.26833 29735 ft 476 kts 294°
2026-04-28 20:55 22.39831 63.21483 29735 ft 475 kts 294°
2026-04-28 20:56 22.42594 63.14998 29714 ft 474 kts 289°
2026-04-28 20:56 22.44286 63.08132 29728 ft 473 kts 280°
2026-04-28 20:57 22.44963 63.01061 29754 ft 472 kts 274°
2026-04-28 20:57 22.45366 62.93976 29745 ft 473 kts 274°
2026-04-28 20:58 22.45778 62.86916 29728 ft 473 kts 274°
2026-04-28 20:58 22.46213 62.79811 29740 ft 474 kts 274°
2026-04-28 20:59 22.46656 62.72700 29731 ft 474 kts 274°
2026-04-28 20:59 22.47098 62.65565 29730 ft 474 kts 274°
2026-04-28 21:00 22.47536 62.58444 29741 ft 474 kts 274°
2026-04-28 21:00 22.47969 62.51322 29739 ft 474 kts 274°
2026-04-28 21:01 22.48397 62.44240 29751 ft 474 kts 274°
2026-04-28 21:01 22.48823 62.37126 29752 ft 474 kts 274°
2026-04-28 21:02 22.49247 62.30005 29730 ft 474 kts 274°
2026-04-28 21:02 22.49667 62.22897 29740 ft 473 kts 274°
2026-04-28 21:03 22.50083 62.15801 29745 ft 473 kts 274°
2026-04-28 21:03 22.50496 62.08704 29747 ft 473 kts 274°
2026-04-28 21:04 22.50906 62.01604 29735 ft 473 kts 274°
2026-04-28 21:04 22.51313 61.94502 29753 ft 473 kts 274°
2026-04-28 21:05 22.51715 61.87447 29747 ft 473 kts 274°
2026-04-28 21:05 22.52116 61.80337 29751 ft 473 kts 274°
2026-04-28 21:06 22.52514 61.73220 29748 ft 474 kts 274°
2026-04-28 21:06 22.52910 61.66096 29747 ft 474 kts 274°
2026-04-28 21:07 22.53303 61.58978 29752 ft 475 kts 274°
2026-04-28 21:07 22.53498 61.55404 29865 ft 476 kts 274°
2026-04-28 21:07 22.53694 61.51819 30123 ft 475 kts 274°
2026-04-28 21:08 22.53887 61.48260 30414 ft 473 kts 274°
2026-04-28 21:08 22.54079 61.44719 30706 ft 471 kts 274°
2026-04-28 21:08 22.54267 61.41223 30937 ft 471 kts 274°
2026-04-28 21:08 22.54457 61.37688 31146 ft 471 kts 274°
2026-04-28 21:09 22.54646 61.34152 31349 ft 471 kts 274°
2026-04-28 21:09 22.54834 61.30618 31560 ft 471 kts 274°
2026-04-28 21:09 22.55209 61.23536 31703 ft 472 kts 274°
2026-04-28 21:10 22.55581 61.16446 31735 ft 471 kts 274°
2026-04-28 21:10 22.55948 61.09378 31740 ft 470 kts 274°
2026-04-28 21:11 22.56312 61.02328 31744 ft 469 kts 274°
2026-04-28 21:11 22.56673 60.95268 31746 ft 469 kts 274°
2026-04-28 21:12 22.57029 60.88266 31744 ft 469 kts 274°
2026-04-28 21:12 22.57382 60.81214 31748 ft 470 kts 274°
2026-04-28 21:13 22.57734 60.74135 31738 ft 470 kts 274°
2026-04-28 21:13 22.58083 60.67064 31748 ft 471 kts 274°
2026-04-28 21:14 22.58429 60.59985 31748 ft 471 kts 274°
2026-04-28 21:14 22.58774 60.52887 31744 ft 472 kts 274°